Regional Weather Roundup
Issued by NWS Goodland, KS

Home | Current Version | Previous Version | Text Only | Print | Product List | Glossary Off
Versions: 1 2 3 4 5 6 7 8 9 10 11 12 13 14 15 16 17 18 19 20 21 22 23 24 25 26 27 28 29 30 31 32 33 34 35 36 37 38 39 40 41 42 43 44 45 46 47 48 49 50

150
ASUS43 KGLD 241059
RWRGLD

GOODLAND FORECAST AREA HOURLY WEATHER ROUNDUP
NATIONAL WEATHER SERVICE GOODLAND KS
500 AM MDT TUE MAY 24 2016

...OFFICIAL OBSERVATIONS...

CITY           SKY/WX    TMP DP  RH WIND       PRES   REMARKS
GOODLAND KS    CLOUDY    55  44  66 NE14      29.87R
HILL CITY KS   CLOUDY    59  57  93 SE12      29.85S
IMPERIAL NEB   CLOUDY    56  47  71 SE8       29.86R
MCCOOK NEB     CLOUDY    57  48  72 N14       29.89R
AKRON CO       CLOUDY    48  44  86 NW5       29.92R
BURLINGTON CO  CLOUDY    54  42  64 NE14      29.88R
LIMON CO       CLOUDY    51  43  74 VRB3      29.94S
$$

...UNOFFICIAL OBSERVATIONS...

CITY           SKY/WX    TMP DP  RH WIND       PRES   REMARKS
COLBY KS       CLOUDY    55  52  88 N15       29.89S
LENORA KS        N/A     58  32  37 MISG        N/A
NORTON KS      LGT RAIN  59  55  88 E6        29.88F
SHARON SPRINGS   N/A     57  51  81 NE16G24     N/A
KIT CARSON CO    N/A     54  41  62 MISG        N/A
YUMA CO          N/A     53  49  87 NW8         N/A
$$




USA.gov is the U.S. government's official web portal to all federal, state and local government web resources and services.